Location: Long Geng
(2.6167°N, 114.1333°E)
Time: 00:36:50
(UTC+00:00)

Cosmos 1408 - Pass Details

Date: 14 May 2021
Orbit: 468 x 490 km, 82.6° (Epoch: 19 June)

Event Time Altitude Azimuth Distance (km) Brightness Sun altitude
Rises 20:53:14 0° 167° (SSE) 2,517 6.1 -19.5°
Reaches altitude 10° 20:55:29 10° 156° (SSE) 1,634 5.3 -19.0°
Maximum altitude 20:58:39 30° 94° (E) 867 4.5 -18.3°
Drops below altitude 10° 21:01:48 10° 31° (NNE) 1,621 6.0 -17.5°
Sets 21:04:01 0° 20° (NNE) 2,493 6.8 -17.0°
